Regional Weather Roundup
Issued by NWS

Home | Current Version | Previous Version | Graphics & Text | Print | Product List | Glossary Off
Versions: 1 2 3 4 5 6 7 8 9 10 11 12 13 14 15 16 17 18 19 20 21 22 23 24 25 26 27 28 29 30 31 32 33 34 35 36 37 38 39 40 41 42 43 44 45 46 47 48 49 50

000
ASUS43 KMKX 020010
RWRWI

WISCONSIN REGIONAL WEATHER ROUNDUP
NATIONAL WEATHER SERVICE MILWAUKEE/SULLIVAN WI
700 PM CDT WED APR 01 2015

NOTE: "FAIR" INDICATES FEW OR NO CLOUDS BELOW 12,000 FEET WITH NO
SIGNIFICANT WEATHER AND/OR OBSTRUCTIONS TO VISIBILITY.

WIZ001-002-006>008-014>016-023>028-020100-
NORTHWEST WISCONSIN

CITY           SKY/WX    TMP DP  RH WIND       PRES   REMARKS
SUPERIOR ARPT  CLOUDY    35  33  93 E8        29.50F WCI  28
6HR MIN TEMP:  34; 6HR MAX TEMP:  37;

ASHLAND        PTCLDY    67  37  33 S15G24    29.46F
6HR MIN TEMP:  60; 6HR MAX TEMP:  67; 6HR PCP: TRACE;

HAYWARD        CLOUDY    61  39  44 W3        29.52F
6HR MIN TEMP:  58; 6HR MAX TEMP:  64; 6HR PCP:  0.06;

SIREN          LGT RAIN  62  47  59 SE5       29.45F
6HR MIN TEMP:  60; 6HR MAX TEMP:  70; 6HR PCP:  0.03;

CUMBERLAND     CLOUDY    70  32  24 S21G28    29.49F
RICE LAKE      CLOUDY    73  31  21 S21G31    29.52F
6HR MIN TEMP:  63; 6HR MAX TEMP:  75;

CHETEK         CLOUDY    74  34  22 S22G29    29.52F
6HR MIN TEMP:  64; 6HR MAX TEMP:  76;

LADYSMITH      CLOUDY    71  36  28 S8        29.57F
6HR MIN TEMP:  59; 6HR MAX TEMP:  71;

EAU CLAIRE     PTCLDY    75  31  19 S16G39    29.54F
6HR MIN TEMP:  67; 6HR MAX TEMP:  80;

MENOMONIE      PTCLDY    75  30  19 S17G29    29.52F
6HR MIN TEMP:  68; 6HR MAX TEMP:  80;

NEW RICHMOND   MOCLDY    73  35  25 S21G29    29.47F
6HR MIN TEMP:  70; 6HR MAX TEMP:  78;

OSCEOLA        MOCLDY    74  37  25 S18G29    29.47F
6HR MIN TEMP:  68; 6HR MAX TEMP:  78;

$$

WIZ003>005-009-010-017-018-020100-
NORTH CENTRAL WISCONSIN

CITY           SKY/WX    TMP DP  RH WIND       PRES   REMARKS
MANITOWISH WTR CLOUDY    55  37  50 S10       29.58F
6HR MIN TEMP:  53; 6HR MAX TEMP:  58;

ARBOR VITAE    CLOUDY    57  37  47 S10G18    29.61F
6HR MIN TEMP:  52; 6HR MAX TEMP:  59;

WOODRUFF       CLOUDY    57  37  47 S10G18    29.61F
6HR MIN TEMP:  52; 6HR MAX TEMP:  59;

RHINELANDER    CLOUDY    56  36  47 SE10      29.63F
6HR MIN TEMP:  53; 6HR MAX TEMP:  59;

EAGLE RIVER    CLOUDY    54  33  44 SE7       29.62S
6HR MIN TEMP:  51; 6HR MAX TEMP:  59;

LAND O LAKES   CLOUDY    53  34  49 S10G16    29.61F
6HR MIN TEMP:  50; 6HR MAX TEMP:  57;

PHILLIPS       CLOUDY    63  38  40 SE8       29.57F
6HR MIN TEMP:  57; 6HR MAX TEMP:  63;

TOMAHAWK       CLOUDY    59  37  43 CALM      29.61F
6HR MIN TEMP:  54; 6HR MAX TEMP:  63;

MEDFORD        MOCLDY    67  39  35 S16       29.60F
6HR MIN TEMP:  56; 6HR MAX TEMP:  68;

MERRILL        CLOUDY    62  39  42 SE6       29.62F
6HR MIN TEMP:  56; 6HR MAX TEMP:  65;

$$

WIZ029-030-035-036-043>047-020100-
CENTRAL WISCONSIN

CITY           SKY/WX    TMP DP  RH WIND       PRES   REMARKS
WAUSAU         CLOUDY    69  35  28 S17G26    29.61F
6HR MIN TEMP:  58; 6HR MAX TEMP:  70;

MOSINEE        CLEAR     70  36  28 S20G25    29.65F
MARSHFIELD     PTCLDY    72  34  24 S18G26    29.62F
6HR MIN TEMP:  63; 6HR MAX TEMP:  76;

STEVENS POINT  MOCLDY    69  36  29 S14       29.66F
6HR MIN TEMP:  59; 6HR MAX TEMP:  72;

WAUPACA        MOCLDY    72  35  25 S12       29.69F
6HR MIN TEMP:  60; 6HR MAX TEMP:  75;

WAUTOMA        PTCLDY    73  34  24 S15G23    29.69F
6HR MIN TEMP:  64; 6HR MAX TEMP:  76;

WISC RAPIDS    PTCLDY    72  30  21 S15       29.66F
6HR MIN TEMP:  65; 6HR MAX TEMP:  77;

CAMP DOUGLAS   MOCLDY    73  34  23 S14G20    29.66F
$$

WIZ011>013-019>022-031-037>040-048>050-020100-
NORTHEAST WISCONSIN

CITY           SKY/WX    TMP DP  RH WIND       PRES   REMARKS
ANTIGO         CLOUDY    53  39  58 SE17      29.66F
6HR MIN TEMP:  50; 6HR MAX TEMP:  57;

SHAWANO        CLOUDY    57  40  53 SE5       29.71F
6HR MIN TEMP:  55; 6HR MAX TEMP:  64;

OCONTO         CLOUDY    48  37  66 SE3       29.74F
6HR MIN TEMP:  46; 6HR MAX TEMP:  54;

STURGEON BAY   CLOUDY    45  34  65 S20G26    29.78F
6HR MIN TEMP:  43; 6HR MAX TEMP:  48;

GREEN BAY      CLOUDY    55  40  56 S17       29.73F
6HR MIN TEMP:  53; 6HR MAX TEMP:  57;

MANITOWOC      CLOUDY    46  37  71 S21G28    29.78F
6HR MIN TEMP:  43; 6HR MAX TEMP:  48;

APPLETON       MOCLDY    57  37  47 S14       29.72F
CLINTONVILLE   CLOUDY    57  37  47 S10       29.70F
OSHKOSH        PTCLDY    61  41  47 S13       29.72F
6HR MIN TEMP:  60; 6HR MAX TEMP:  65;

$$

WIZ032>034-041-042-053>061-020100-
SOUTHWEST WISCONSIN

CITY           SKY/WX    TMP DP  RH WIND       PRES   REMARKS
LA CROSSE      MOCLDY    76  32  20 S21G28    29.60F
6HR MIN TEMP:  71; 6HR MAX TEMP:  82;

SPARTA         MOCLDY    73  28  18 S16G29    29.65F
6HR MIN TEMP:  70; 6HR MAX TEMP:  80;

VIROQUA        MOCLDY    71  32  24 S15G25    29.67F
6HR MIN TEMP:  69; 6HR MAX TEMP:  76;

BOSCOBEL         N/A     76  31  19 S17G29    29.69F
6HR MIN TEMP:  74; 6HR MAX TEMP:  82;

PRAIRIE DU CHI PTCLDY    75  28  17 S13G32    29.68S
6HR MIN TEMP:  74; 6HR MAX TEMP:  79;

PLATTEVILLE    CLEAR     71  34  24 S22G33    29.75S
6HR MIN TEMP:  71; 6HR MAX TEMP:  78;

$$

WIZ056-057-062-063-064-067-068-020100-
SOUTH CENTRAL WISCONSIN

CITY           SKY/WX    TMP DP  RH WIND       PRES   REMARKS
REEDSBURG      PTCLDY    72  35  25 S21G30    29.69F
6HR MIN TEMP:  66; 6HR MAX TEMP:  76;

BARABOO/DELLS  PTCLDY    72  29  20 S20G30    29.70F
6HR MIN TEMP:  66; 6HR MAX TEMP:  75;

LONE ROCK      MOCLDY    73  32  22 S15G25    29.71S
6HR MIN TEMP:  70; 6HR MAX TEMP:  79;

MINERAL POINT  PTCLDY    72  30  21 S14G25    29.75R
MADISON        MOCLDY    71  34  25 S16       29.75F
6HR MIN TEMP:  68; 6HR MAX TEMP:  75;

MIDDLETON      CLEAR     72  28  19 S16G29    29.74F
6HR MIN TEMP:  69; 6HR MAX TEMP:  78;

WATERTOWN      CLEAR     69  37  30 S9G17     29.77S
6HR MIN TEMP:  65; 6HR MAX TEMP:  74;

MONROE         CLEAR     70  36  28 S23       29.77F
JANESVILLE     CLEAR     73  32  21 S23       29.79S
$$

WIZ051-052-058>065-066-070>072-020100-
SOUTHEAST WISCONSIN

CITY           SKY/WX    TMP DP  RH WIND       PRES   REMARKS
MILWAUKEE      MOCLDY    58  35  42 S12       29.83F
6HR MIN TEMP:  50; 6HR MAX TEMP:  62;

WAUKESHA       MOCLDY    68  36  30 S14G20    29.81F
MILWAUKEE/TIMM CLEAR     63  34  34 S12       29.81F
RACINE         PTCLDY    53  35  50 S15       29.85F
6HR MIN TEMP:  50; 6HR MAX TEMP:  55;

BURLINGTON     PTCLDY    67  36  31 S14G23    29.81F
6HR MIN TEMP:  65; 6HR MAX TEMP:  73;

KENOSHA        CLEAR     62  39  42 S10       29.83F
6HR MIN TEMP:  57; 6HR MAX TEMP:  65;

FOND DU LAC    PTCLDY    61  40  45 S13       29.74F
6HR MIN TEMP:  61; 6HR MAX TEMP:  66;

SHEBOYGAN      MOCLDY    52  36  54 S14G22    29.79F
6HR MIN TEMP:  49; 6HR MAX TEMP:  53;

WEST BEND      PTCLDY    59  34  38 S8        29.78F
JUNEAU         CLEAR     68  36  30 S18       29.77F
6HR MIN TEMP:  64; 6HR MAX TEMP:  72;

$$

LSZ147-162-020100-
LAKE SUPERIOR

STATION/POSITION TIME  TEMP    WIND        PRES    WAVE
                       AIR SEA DIR/SP/G            HT/PER
                 (UTC) (F)     (DEG/KT/KT) (MB)    (FT/S)
DEVILS ISLAND    0000   37      50/ 16/ 17  998.2F
PORT WING        2300   35      50/  8/ 21  999.0
SAXON HARBOR     2300   65     180/ 12/ 22  998.0F
$$

LMZ867-665-643>646-020100-
LAKE MICHIGAN

STATION/POSITION TIME  TEMP    WIND        PRES    WAVE
                       AIR SEA DIR/SP/G            HT/PER


USA.gov is the U.S. government's official web portal to all federal, state and local government web resources and services.